Flag Weather past 2 weeks in Portland, Maine, U.S.A.

Now
27 °F

Light snow. Overcast.


Feels Like: 20 °F
Forecast: 25 / 32 °F
Wind: 7 mph from North

Location: Portland - Portland International Jetport

Current Time: Nov 28, 2014 at 6:31:13 AM

Latest Report: Nov 28, 2014 at 5:51 AM


Visibility: 6 mi

Pressure: 30.04 "Hg

Humidity: 69%

Dew point: 18 °F

Location of PortlandLocation

Historic Weather in Portland — Graph

°F

Portland temperature yesterday

Maximum temperature yesterday: 37 °F (at 1:51 PM)
Minimum temperature yesterday: 29 °F (at 11:51 PM)
Average temperature yesterday: 33 °F

Past Weeks' High & Low Weather Summary

 TemperatureHumidityPressure
High63 °F (Nov 24, 11:51 PM)97% (Nov 14, 12:51 AM)30.36 "Hg (Nov 14, 12:51 AM)
Low22 °F (Nov 16, 2:51 AM)27% (Nov 25, 2:51 PM)29.40 "Hg (Nov 18, 2:51 AM)
Average37 °F62%29.97 "Hg
* Reported Nov 13 4:51 AM — Nov 28 4:51 AM, Portland, Weather by CustomWeather, © 2014

Note: Actual official high and low records may vary slightly from our data, if they occured in-between our weather recording intervals... More about our weather records

Advertising

Portland weather history for previous 24 hours

 ConditionsComfort  
Time TempWeatherWind HumidityBarometerVisibility
4:51 AM
Nov 28
28 °FOvercast.9 mph64%30.02 "Hg10 mi
3:51 AM28 °FOvercast.10 mph66%30.02 "Hg10 mi
2:51 AM28 °FMostly cloudy.8 mph72%30.02 "Hg10 mi
1:51 AM28 °FMostly cloudy.12 mph72%30.02 "Hg10 mi
12:51 AM29 °FOvercast.12 mph69%30.01 "Hg10 mi
11:51 PM
Nov 27
29 °FPassing clouds.10 mph72%30.02 "Hg10 mi
10:51 PM30 °FPassing clouds.12 mph69%30.03 "Hg10 mi
9:51 PM31 °FPassing clouds.8 mph73%30.03 "Hg10 mi
8:51 PM31 °FPassing clouds.7 mph73%30.03 "Hg10 mi
7:51 PM32 °FOvercast.10 mph69%30.03 "Hg10 mi
6:51 PM32 °FOvercast.7 mph73%30.01 "Hg10 mi
5:51 PM33 °FPassing clouds.6 mph72%29.99 "Hg10 mi
4:51 PM34 °FPassing clouds.6 mph73%29.98 "Hg10 mi
3:51 PM36 °FPartly sunny.No wind67%29.97 "Hg10 mi
2:51 PM37 °FPartly sunny.9 mph65%29.95 "Hg10 mi
1:51 PM37 °FPartly sunny.7 mph67%29.94 "Hg10 mi
12:51 PM36 °FPartly sunny.8 mph67%29.93 "Hg10 mi
11:51 AM36 °FPartly sunny.9 mph67%29.93 "Hg10 mi
10:51 AM35 °FPartly sunny.13 mph70%29.92 "Hg10 mi
9:51 AM34 °FScattered clouds.10 mph70%29.90 "Hg10 mi
8:51 AM33 °FPassing clouds.14 mph75%29.88 "Hg10 mi
7:51 AM32 °FPassing clouds.9 mph79%29.85 "Hg10 mi
6:51 AM32 °FScattered clouds.15 mph82%29.82 "Hg10 mi
Weather by CustomWeather, © 2014

See weather overviewHow to use our weather pages